Weather in Kuchugur

Russia / Novosibirsk Oblast     53°59′46″N   78°12′46″E
temp.,
°C
wind,
m/s
gust,
m/s
humid.,
%
clouds,
%
prec.,
mm/h
press.,
hPa
HPBL,
m
27 february, sat
sat2701:00−29sw4898100 0.1 1036155
04:00−28sw3798100 0.0 1036172
07:00−29ssw3598100 0.1 103791
10:00−30ssw369797 0.0 1037161
13:00−27ssw359486 0.0 1038248
16:00−25ssw359355 0.0 1037316
19:00−27s349646 0.0 103736
22:00−29s34960 0.0 103750
28 february, sun
sun2801:00−29s44973 0.0 103653
04:00−29sse45953 0.0 103575
07:00−28se479339 0.0 1034118
10:00−25se51090100 0.0 1031241
13:00−20se61091100 0.0 1028303
16:00−15se71195100 0.2 1024432
19:00−10se61193100 0.8 1019539
22:00−7se51195100 0.4 1015447
1 march, mon
mon101:00−4sse51096100 1.6 1011497
04:00−2s71397100 2.7 1007637
07:00+1wsw81498100 4.7 1005651
10:000sw91497100 0.1 1005772
13:000wsw81395100 0.8 1006783
16:000wsw7119199 0.1 1008888
19:00−2w599799 0.6 1010390
22:00−7nw4795100 0.7 1013238
2 march, tue
tue201:00−14wnw349789 0.7 101640
04:00−16w239873 0.0 101720
07:00−18wsw239883 0.1 101920
10:00−18sw229793 0.0 101932
13:00−14wsw229192 0.1 1018231
16:00−12ssw1289100 0.0 1017267
19:00−14ne1195100 0.0 101620
22:00−14ene2295100 0.0 101521
3 march, wed
wed301:00−13ene1197100 0.4 101420
04:00−14wnw119797 0.3 101320
07:00−14w129697 0.6 101420
10:00−14wsw239699 0.3 1015127
13:00−12w359299 0.5 1016408
16:00−11w4691100 0.2 1018523
19:00−13w3695100 0.3 1020188
22:00−17wsw349787 0.0 102239